sat.trackr.live / text

‹ back to catalog

STARLINK-34320

NORAD 64217 · 2025-117Q

PAYLOAD ACTIVE UNKNOWN

§ Identity

Operator
Country
US
Launch date
2025-05-31
Launch site
AFWTR
Launch vehicle
Mass (kg)
RCS (m²)

Purposes: comms

External: N2YO · Heavens-Above · Gunter

§ Orbital elements

Epoch: 2026-05-23T03:52:03.017856Z

Period
94.11 min
Inclination
53.1597°
Eccentricity
0.0001179
Mean motion
15.30200733 rev/d
Perigee alt
474.4 km
Apogee alt
476.0 km
Semi-major
6,853.3 km
B*
8.8685e-4
RAAN
53.9741°
Arg perigee
86.9517°
Mean anomaly
273.1619°
Rev number
5,592

§ Raw data

STARLINK-343201 64217U 25117Q   26143.16114604  .00025999  00000+0  88685-3 0  99962 64217  53.1597  53.9741 0001179  86.9517 273.1619 15.30200733 55929

JSON: /api/v1/satellites/64217 · /tle

For live sub-satellite position, see the globe view (requires WebGL).

§ Visibility from observer

Set your observer location to see the next 7 days of passes ≥ 10°. The values pass through the URL so the page stays shareable.

No JS? Fill the form by hand. The geolocation button needs JavaScript.